This demonstration page uses our WeatherBlox Daily Observations layout. Learn more.

Left ArrowRight Arrow

39.51506, -84.39828

Hourly Observations for July 7, 2021

Temp ( °F °C ) Dew Point ( °F °C ) Humidity (%) Winds ( mph kmh ) Pressure ( in mb ) Visibility ( mi km ) Precip ( " mm )
12:15 am 00:15 Clear 74 23.2 72 22.1 94 94 WSW 5 7 30.04 1017 10 16 N/A
12:35 am 00:35 Clear 72 22 72 22 100 100 N N/A 30.04 1017 10 16 N/A
12:55 am 00:55 Clear 73 22.5 72 22.1 98 98 WNW 3 6 30.03 1017 10 16 N/A
1:15 am 01:15 Clear 72 22 72 22 100 100 N N/A 30.03 1017 10 16 N/A
1:35 am 01:35 Clear 72 22 N/A N/A N N/A 30.03 1017 7 11 N/A
1:55 am 01:55 Clear 70 21 N/A N/A N N/A 30.03 1017 10 16 N/A
2:15 am 02:15 Clear 70 21 N/A N/A SW 3 6 30.03 1017 10 16 N/A
2:35 am 02:35 Clear 70 21 70 21 100 100 WSW 5 7 30.03 1017 10 16 N/A
2:55 am 02:55 Clear 70 21 N/A N/A W 5 7 30.03 1017 10 16 N/A
3:15 am 03:15 Clear 70 21.2 70 21.1 99 99 W 5 7 30.02 1017 10 16 N/A
3:35 am 03:35 Clear 71 21.6 70 21.1 97 97 SSW 5 7 30.02 1017 10 16 N/A
3:55 am 03:55 Clear 70 21 70 21 100 100 WSW 3 6 30.02 1017 10 16 N/A
4:15 am 04:15 Partly Cloudy 70 21 N/A N/A SSW 3 6 30.02 1017 7 11 N/A
4:35 am 04:35 Partly Cloudy 70 21 N/A N/A WSW 3 6 30.01 1016 10 16 N/A
4:55 am 04:55 Partly Cloudy 70 21 N/A N/A W 3 6 30.01 1016 10 16 N/A
5:15 am 05:15 Clear 70 21 N/A N/A N N/A 30.01 1016 10 16 N/A
5:35 am 05:35 Hazy 68 20 N/A N/A WSW 3 6 30.01 1016 7 11 N/A
5:55 am 05:55 Hazy 68 20 N/A N/A WSW 5 7 30.01 1016 7 11 N/A
6:15 am 06:15 Hazy 68 20 N/A N/A N N/A 30.01 1016 5 8 N/A
6:35 am 06:35 Hazy 68 20 N/A N/A WSW 3 6 30.01 1016 5 8 N/A
6:55 am 06:55 Hazy 70 21 N/A N/A N N/A 30.02 1017 7 11 N/A
7:15 am 07:15 Mostly Cloudy with Haze 70 21 N/A N/A N N/A 30.02 1017 7 11 N/A
7:35 am 07:35 Hazy 72 22 N/A N/A N N/A 30.02 1017 7 11 N/A
7:55 am 07:55 Sunny 73 22.7 72 22.3 98 98 SW 3 6 30.02 1017 7 11 N/A
8:15 am 08:15 Mostly Cloudy 75 23.7 71 21.9 90 90 SW 5 7 30.02 1016 10 16 N/A
8:35 am 08:35 Sunny 76 24.2 71 21.8 87 87 W 3 6 30.00 1016 10 16 N/A
8:55 am 08:55 Sunny 77 24.8 71 21.9 84 84 S 6 9 30.00 1016 10 16 N/A
9:15 am 09:15 Sunny 78 25.5 71 21.8 80 80 SW 6 9 30.01 1016 10 16 N/A
9:35 am 09:35 Sunny 79 26.3 72 22 77 77 SW 7 11 30.01 1016 10 16 N/A
9:55 am 09:55 Partly Cloudy 80 26.8 72 22.2 76 76 SSW 6 9 30.01 1016 10 16 N/A
10:15 am 10:15 Sunny 80 26.9 72 22.4 76 76 SW 9 15 30.00 1016 10 16 N/A
10:35 am 10:35 Partly Cloudy 82 28 73 22.7 73 73 SW 7 11 30.00 1016 10 16 N/A
10:55 am 10:55 Mostly Cloudy 81 27.4 73 22.6 75 75 SSW 5 7 29.99 1015 10 16 N/A
11:15 am 11:15 Mostly Cloudy 82 27.6 73 23 76 76 WSW 5 7 29.99 1015 10 16 N/A
11:35 am 11:35 Cloudy 81 27.4 73 22.8 76 76 WSW 7 11 29.99 1015 10 16 N/A
11:55 am 11:55 Mostly Cloudy 82 27.8 73 22.7 74 74 SW 5 7 29.98 1015 10 16 N/A
12:15 pm 12:15 Partly Cloudy 84 28.7 73 22.8 70 70 S 3 6 29.97 1015 10 16 N/A
12:35 pm 12:35 Mostly Cloudy 84 28.8 73 22.6 69 69 SSW 8 13 29.96 1015 10 16 N/A
12:55 pm 12:55 Sunny 86 29.8 73 22.5 65 65 SW 7 11 29.95 1014 10 16 N/A
1:15 pm 13:15 Sunny 87 30.7 72 22.4 61 61 SW 7 11 29.95 1014 10 16 N/A
1:35 pm 13:35 Sunny 89 31.7 66 18.8 46 46 SW 14 22 29.94 1014 10 16 N/A
1:55 pm 13:55 Sunny 90 32 65 18.6 45 45 WSW 16 26 29.94 1014 10 16 N/A
2:15 pm 14:15 Sunny 90 32.1 65 18.2 44 44 WSW 14 22 29.93 1013 10 16 N/A
2:35 pm 14:35 Sunny 90 32.2 65 18.5 44 44 W 15 24 29.93 1013 10 16 N/A
2:55 pm 14:55 Sunny 90 32.3 64 17.9 42 42 SSW 8 13 29.91 1013 10 16 N/A
3:15 pm 15:15 Partly Cloudy 91 32.7 65 18.6 43 43 SW 12 19 29.91 1013 10 16 N/A
3:35 pm 15:35 Partly Cloudy 90 32.2 64 17.6 42 42 SSW 12 19 29.90 1012 10 16 N/A
3:55 pm 15:55 Mostly Cloudy 89 31.7 65 18.2 45 45 SW 9 15 29.89 1012 10 16 N/A
4:15 pm 16:15 Mostly Cloudy 89 31.4 65 18.6 47 47 SSW 14 22 29.88 1012 10 16 N/A
4:35 pm 16:35 Mostly Cloudy 89 31.9 67 19.7 48 48 SW 13 20 29.88 1012 10 16 N/A
4:55 pm 16:55 Mostly Cloudy 90 32 68 20 49 49 SSW 9 15 29.87 1011 10 16 N/A
5:15 pm 17:15 Partly Cloudy 91 32.5 67 19.7 47 47 WSW 13 20 29.87 1011 10 16 N/A
5:35 pm 17:35 Sunny 89 31.9 68 19.9 49 49 WSW 12 19 29.87 1011 10 16 N/A
5:55 pm 17:55 Partly Cloudy 88 30.9 68 19.9 52 52 WSW 10 17 29.87 1012 10 16 N/A
6:15 pm 18:15 Sunny 87 30.4 67 19.7 53 53 WSW 12 19 29.86 1011 10 16 N/A
6:35 pm 18:35 Partly Cloudy 86 30 68 20.1 55 55 WSW 14 22 29.87 1012 10 16 N/A
6:55 pm 18:55 Cloudy 83 28.3 67 19.2 58 58 SW 16 26 29.89 1012 10 16 N/A
7:15 pm 19:15 Mostly Cloudy 81 27.3 67 19.7 63 63 SW 17 28 29.90 1012 10 16 N/A
7:35 pm 19:35 Partly Cloudy 80 26.6 67 19.2 64 64 SW 15 24 29.90 1013 10 16 N/A
7:55 pm 19:55 Mostly Cloudy 78 25.7 67 19.6 69 69 WSW 9 15 29.91 1013 10 16 N/A
8:15 pm 20:15 Cloudy 77 25.1 68 19.9 73 73 WSW 5 7 29.91 1013 10 16 N/A
8:35 pm 20:35 Mostly Cloudy 78 25.3 67 19.7 71 71 SW 8 13 29.91 1013 10 16 N/A
8:55 pm 20:55 Cloudy 77 25.1 68 20.1 74 74 SW 6 9 29.92 1013 10 16 N/A
9:15 pm 21:15 Cloudy 77 25.2 68 20.2 74 74 S 7 11 29.92 1013 10 16 N/A
9:35 pm 21:35 Cloudy 77 25.1 69 20.5 76 76 SSW 9 15 29.91 1013 10 16 N/A
9:55 pm 21:55 Partly Cloudy 76 24.5 70 21.1 81 81 WSW 8 13 29.91 1013 10 16 N/A
10:15 pm 22:15 Cloudy 76 24.4 70 21.1 82 82 WSW 6 9 29.92 1013 10 16 N/A
10:35 pm 22:35 Mostly Cloudy 75 24 71 21.5 86 86 WSW 5 7 29.93 1013 10 16 N/A
10:55 pm 22:55 Partly Cloudy 75 24 71 21.4 85 85 N N/A 29.93 1013 10 16 N/A
11:15 pm 23:15 Partly Cloudy 74 23.4 71 21.9 91 91 N N/A 29.93 1013 10 16 N/A
11:35 pm 23:35 Clear 73 23 72 22 94 94 N 3 6 29.93 1013 10 16 N/A
11:55 pm 23:55 Clear 73 22.7 70 21.3 92 92 N 3 6 29.93 1013 10 16 N/A

Powered by AerisWeather